Location: Unspecified
(0.0000°N, 0.0000°E)
Time: 16:46:57
(UTC+00:00)

ISS - Pass Details

Date: 05 March 2026
Orbit: 417 x 426 km, 51.6° (Epoch: 15 March)

Event Time Altitude Azimuth Distance (km) Brightness Sun altitude
Rises 19:56:23 0° 243° (WSW) 2,378 1.2 -26.1°
Reaches altitude 10° 19:59:05 10° 266° (W) 1,509 0.1 -26.8°
Maximum altitude 20:01:15 16° 306° (NW) 1,200 -1.0 -27.3°
Enters shadow 20:01:26 16° 310° (NW) 1,202 -1.0 -27.4°
